Location: Mentone
(34.5413°N, 85.5351°W)
Time: 03:37:04
(UTC-06:00)

Transit 2A Rocket - Visible Passes

Search period start: 09 December 2016 00:00
Search period end: 19 December 2016 00:00
Orbit: 591 x 914 km, 66.7° (Epoch: 08 December)

Date Brightness Start Highest point End Pass type
(mag) Time Alt. Az. Time Alt. Az. Time Alt. Az.
09 Dec 6.8 03:51:20 21° ENE 03:51:20 21° ENE 03:54:03 10° ESE visible
09 Dec 5.4 05:31:19 21° WNW 05:33:15 29° WSW 05:36:58 10° S visible
09 Dec 5.6 18:16:26 10° S 18:21:59 42° ESE 18:22:06 42° ESE visible
09 Dec 7.5 19:59:51 10° WSW 20:02:05 19° W 20:02:05 19° W visible
10 Dec 4.4 04:50:54 61° W 04:51:04 62° WSW 04:55:16 10° SSE visible
10 Dec 6.4 17:35:12 10° SSE 17:39:47 24° ESE 17:41:44 20° E visible
10 Dec 6.1 19:16:34 10° SW 19:21:43 43° WNW 19:21:43 43° WNW visible
11 Dec 6.0 04:10:32 33° SE 04:10:32 33° SE 04:13:00 10° SE visible
11 Dec 5.2 18:33:51 10° SSW 18:39:46 77° WNW 18:41:17 50° N visible
12 Dec 6.4 05:10:11 15° SW 05:10:11 15° SW 05:11:29 10° SSW visible
12 Dec 5.2 17:51:36 10° SSW 17:57:26 62° ESE 18:00:46 24° NE visible
12 Dec 7.3 19:36:24 10° W 19:40:21 19° NW 19:40:44 19° NW visible
13 Dec 6.9 04:29:50 13° S 04:29:50 13° S 04:30:21 10° S visible
13 Dec 5.9 17:09:54 10° S 17:15:10 35° ESE 17:20:09 10° NE visible
13 Dec 6.7 18:52:40 10° WSW 18:57:45 31° WNW 19:00:08 22° NNW visible
14 Dec 5.8 18:09:34 10° SW 18:15:17 52° WNW 18:19:27 17° NNE visible
15 Dec 5.2 17:27:00 10° SSW 17:32:54 90° SE 17:38:23 10° NNE visible
15 Dec 7.6 19:13:30 10° WNW 19:16:04 13° NW 19:18:33 10° NNW visible
16 Dec 7.2 18:29:03 10° WSW 18:33:23 22° NW 18:37:31 10° N visible
17 Dec 6.5 17:45:33 10° SW 17:50:50 36° WNW 17:55:48 10° N visible
18 Dec 5.7 17:02:37 10° SW 17:08:25 63° WNW 17:13:45 10° NNE visible
